Zurück zum Katalog

SL-12 DEB

LostHEO
NORAD 41702·DEBRIS·🇷🇺 Russia

Gestartet Mar 1, 2010 von Baikonur Cosmodrome

Loading…

Nächste Überflüge (nächste 24 Stunden)

TLE

VeraltetSource: Space-Track

Epoche: Jun 25, 2019, 10:31 UTC

1 41702U 10007U   19176.43850192  .00000516  00000-0  65188-3 0  9991
2 41702  65.4592 338.2312 5152089  27.4035 352.2985  5.17837228 76639

Verfolge SL-12 DEB in Echtzeit mit AllMySat

Download on the App Store